User: anonymous   Login
Location: ???? ?????????
(31.1304°N, 31.7111°E)
Time: 12:14:14
(UTC+00:00)
Language:

Cosmos 2219 - Orbit

View from above orbital plane
View from above orbital plane
View from above satellite
View from above satellite

Ground track
Ground track

The orbit data is extracted from the following two-line orbital elements,

1 22219U 92076A   21018.61097505 -.00000070  00000-0 -12396-4 0  9999
2 22219  71.0627 338.2464 0018456 194.5678 165.4915 14.13660086453542
Epoch (UTC): 18 January 2021 14:39:48
Eccentricity: 0.0018456
inclination: 71.0627°
perigee height: 833 km
apogee height: 860 km
right ascension of ascending node: 338.2464°
argument of perigee: 194.5678°
revolutions per day: 14.13660086
mean anomaly at epoch: 165.4915°
orbit number at epoch: 45354

The dashed part of the orbit path shows where the satellite is in the earth's shadow,  

DLR